EZY44PM EGGW-LPPR

Flight info

Callsign EZY44PM
Flight time N/A
Altitude 35000
Route RODNI N27 ICTAM Q63 CPT Y321 PEPIS Q41 SAM M195 LORKU DCT LOTEE/N0448F370 DCT ELTEP/N0387F230 T328 ASPOR
Aircraft A320/M-SDE3FGHIRWY/LB1

Departure

Time 2026-05-06 19:17
Airport London Luton Airport (EGGW)

Arrival

Time N/A
Airport Francisco de Sá Carneiro Airport (LPPR)
Time Latitude Longitude Altitude Speed Heading
2026-05-06 19:17 51.69955 -0.15427 7885 ft 331 kts 207°
2026-05-06 19:17 51.68123 -0.17473 9246 ft 312 kts 224°
2026-05-06 19:17 51.66824 -0.20135 10582 ft 294 kts 240°
2026-05-06 19:17 51.66054 -0.23135 11523 ft 290 kts 256°
2026-05-06 19:18 51.65576 -0.26412 11772 ft 312 kts 257°
2026-05-06 19:18 51.65090 -0.29947 11958 ft 333 kts 258°
2026-05-06 19:18 51.64588 -0.33631 12465 ft 340 kts 257°
2026-05-06 19:18 51.64040 -0.37351 13068 ft 344 kts 252°
2026-05-06 19:19 51.62939 -0.40779 13659 ft 348 kts 232°
2026-05-06 19:19 51.61229 -0.43538 14271 ft 350 kts 221°
2026-05-06 19:19 51.59399 -0.46145 14846 ft 353 kts 221°
2026-05-06 19:19 51.57541 -0.48760 15450 ft 356 kts 221°
2026-05-06 19:20 51.55687 -0.51352 16018 ft 359 kts 221°
2026-05-06 19:20 51.53798 -0.53989 16569 ft 362 kts 221°
2026-05-06 19:20 51.51888 -0.56660 17117 ft 365 kts 221°
2026-05-06 19:20 51.49969 -0.59350 17636 ft 367 kts 221°
2026-05-06 19:21 51.48036 -0.62059 18163 ft 370 kts 221°
2026-05-06 19:21 51.46091 -0.64780 18663 ft 373 kts 221°
2026-05-06 19:21 51.44124 -0.67527 19152 ft 376 kts 221°
2026-05-06 19:21 51.42151 -0.70289 19630 ft 379 kts 221°
2026-05-06 19:22 51.40158 -0.73078 20092 ft 381 kts 221°
2026-05-06 19:22 51.38153 -0.75876 20545 ft 384 kts 221°
2026-05-06 19:22 51.36131 -0.78692 20988 ft 387 kts 221°
2026-05-06 19:22 51.34091 -0.81523 21419 ft 389 kts 221°
2026-05-06 19:23 51.32088 -0.84299 21831 ft 391 kts 221°
2026-05-06 19:23 51.30013 -0.87170 22255 ft 394 kts 221°
2026-05-06 19:23 51.27937 -0.90043 22668 ft 396 kts 221°
2026-05-06 19:23 51.25851 -0.92930 23053 ft 398 kts 221°
2026-05-06 19:24 51.23750 -0.95839 23431 ft 401 kts 221°
2026-05-06 19:24 51.21635 -0.98760 23802 ft 403 kts 221°
2026-05-06 19:24 51.19505 -1.01696 24176 ft 405 kts 221°
2026-05-06 19:24 51.17366 -1.04642 24527 ft 408 kts 221°
2026-05-06 19:25 51.15212 -1.07604 24878 ft 410 kts 221°
2026-05-06 19:25 51.13050 -1.10577 25215 ft 412 kts 221°
2026-05-06 19:25 51.10875 -1.13566 25556 ft 414 kts 221°
2026-05-06 19:25 51.08691 -1.16560 25880 ft 416 kts 220°
2026-05-06 19:26 51.06490 -1.19568 26204 ft 418 kts 220°
2026-05-06 19:26 51.04283 -1.22579 26514 ft 420 kts 220°
2026-05-06 19:26 51.02059 -1.25613 26820 ft 422 kts 220°
2026-05-06 19:26 50.99860 -1.28603 27124 ft 424 kts 220°
2026-05-06 19:27 50.97616 -1.31652 27427 ft 425 kts 220°
2026-05-06 19:27 50.95320 -1.34667 27720 ft 427 kts 216°
2026-05-06 19:27 50.92847 -1.37300 28017 ft 429 kts 213°
2026-05-06 19:27 50.90346 -1.39900 28300 ft 430 kts 213°
2026-05-06 19:28 50.87840 -1.42509 28564 ft 432 kts 213°
2026-05-06 19:28 50.85355 -1.45094 28819 ft 434 kts 213°
2026-05-06 19:28 50.82829 -1.47720 29070 ft 436 kts 213°
2026-05-06 19:28 50.80293 -1.50354 29309 ft 437 kts 213°
2026-05-06 19:29 50.77741 -1.52997 29547 ft 439 kts 213°
2026-05-06 19:29 50.75186 -1.55639 29788 ft 440 kts 213°
2026-05-06 19:29 50.72616 -1.58288 30034 ft 442 kts 213°
2026-05-06 19:29 50.70036 -1.60947 30243 ft 443 kts 213°
2026-05-06 19:30 50.67452 -1.63611 30470 ft 445 kts 213°
2026-05-06 19:30 50.64865 -1.66276 30753 ft 444 kts 213°
2026-05-06 19:30 50.63151 -1.68040 30958 ft 444 kts 213°
2026-05-06 19:30 50.59726 -1.71556 31355 ft 443 kts 213°
2026-05-06 19:31 50.58021 -1.73302 31549 ft 442 kts 213°
2026-05-06 19:31 50.55444 -1.75940 31853 ft 442 kts 213°
2026-05-06 19:31 50.49465 -1.82057 32496 ft 440 kts 213°
2026-05-06 19:32 50.46900 -1.84675 32767 ft 440 kts 213°
2026-05-06 19:32 50.45165 -1.86442 32948 ft 439 kts 213°
2026-05-06 19:32 50.42602 -1.89049 33218 ft 439 kts 213°
2026-05-06 19:32 50.40075 -1.91614 33480 ft 438 kts 213°
2026-05-06 19:33 50.37516 -1.94205 33740 ft 438 kts 213°
2026-05-06 19:33 50.34959 -1.96797 34009 ft 437 kts 213°
2026-05-06 19:33 50.32407 -1.99380 34268 ft 437 kts 213°
2026-05-06 19:33 50.29860 -2.01956 34527 ft 436 kts 213°